When you browse on this site, cookies collect data to enhance your experience and personalize the content and advertising you see.
Visit our Privacy Policy to learn more. By continuing to use the site, you agree to this use of cookies and data.
  • în România
  • Lista ţărilor
  • Pe 7 zile
  • Temperatura apei
  • Hartă satelitară
  • Meteo pe hartă
  • Widget-uri
  • user-avatar
    Intrare

    Meteo pe oră la Gagra

    Astăzi, 21 Martie, Joi

    Timp Temperatura Precipitaţii Vânt Presiune Umiditate
    00:00 +8°C° 0 mm 1 m/s 738 mmHg 84%
    01:00 +8°C° 0 mm 1 m/s 738 mmHg 84%
    02:00 +7°C° 0 mm 1 m/s 738 mmHg 84%
    03:00 +6°C° 0 mm 2 m/s 738 mmHg 82%
    04:00 +5°C° 0 mm 2 m/s 738 mmHg 82%
    05:00 +5°C° 0 mm 2 m/s 739 mmHg 82%
    06:00 +5°C° 0 mm 2 m/s 739 mmHg 82%
    07:00 +6°C° 0 mm 2 m/s 739 mmHg 80%
    08:00 +8°C° 0 mm 2 m/s 739 mmHg 79%
    09:00 +9°C° 0 mm 3 m/s 739 mmHg 77%
    10:00 +10°C° 0 mm 3 m/s 739 mmHg 78%
    11:00 +10°C° 0 mm 3 m/s 739 mmHg 79%
    12:00 +11°C° 0 mm 3 m/s 740 mmHg 80%
    13:00 +10°C° 0 mm 3 m/s 739 mmHg 83%
    14:00 +10°C° 0 mm 3 m/s 739 mmHg 87%
    15:00 +9°C° 0 mm 3 m/s 739 mmHg 90%
    16:00 +9°C° 0 mm 3 m/s 739 mmHg 91%
    17:00 +8°C° 0 mm 3 m/s 740 mmHg 92%
    18:00 +8°C° 0 mm 3 m/s 740 mmHg 92%
    19:00 +7°C° 0 mm 3 m/s 740 mmHg 92%
    20:00 +7°C° 0 mm 3 m/s 740 mmHg 93%
    21:00 +5°C° 0 mm 3 m/s 740 mmHg 93%
    22:00 +5°C° 0 mm 4 m/s 740 mmHg 91%
    23:00 +4°C° 0 mm 4 m/s 740 mmHg 90%

    Mâine, 22 Martie, Vineri

    Timp Temperatura Precipitaţii Vânt Presiune Umiditate
    00:00 +3°C° 0 mm 4 m/s 740 mmHg 89%
    01:00 +3°C° 0 mm 4 m/s 740 mmHg 86%
    02:00 +3°C° 0 mm 4 m/s 740 mmHg 83%
    03:00 +3°C° 0 mm 3 m/s 741 mmHg 80%
    04:00 +3°C° 0.1 mm 3 m/s 740 mmHg 82%
    05:00 +4°C° 0.1 mm 3 m/s 740 mmHg 84%
    06:00 +4°C° 0.1 mm 3 m/s 740 mmHg 86%
    07:00 +5°C° 0.2 mm 3 m/s 740 mmHg 87%
    08:00 +5°C° 0.2 mm 3 m/s 740 mmHg 88%
    09:00 +7°C° 0.2 mm 3 m/s 740 mmHg 89%
    10:00 +7°C° 0.3 mm 3 m/s 740 mmHg 89%
    11:00 +8°C° 0.3 mm 3 m/s 740 mmHg 89%
    12:00 +8°C° 0.3 mm 3 m/s 740 mmHg 89%
    13:00 +8°C° 0.2 mm 2 m/s 740 mmHg 88%
    14:00 +8°C° 0.2 mm 2 m/s 740 mmHg 88%
    15:00 +8°C° 0.2 mm 2 m/s 740 mmHg 88%
    16:00 +7°C° 0 mm 2 m/s 739 mmHg 88%
    17:00 +7°C° 0 mm 2 m/s 739 mmHg 88%
    18:00 +6°C° 0 mm 2 m/s 739 mmHg 88%
    19:00 +5°C° 0 mm 2 m/s 739 mmHg 89%
    20:00 +6°C° 0 mm 1 m/s 739 mmHg 90%
    21:00 +5°C° 0 mm 1 m/s 739 mmHg 90%
    22:00 +5°C° 0 mm 1 m/s 739 mmHg 89%
    23:00 +4°C° 0 mm 1 m/s 739 mmHg 87%

    Poimâine, 23 Martie, Sâmbătă

    Timp Temperatura Precipitaţii Vânt Presiune Umiditate
    00:00 +4°C° 0 mm 1 m/s 738 mmHg 85%
    01:00 +4°C° 0.1 mm 1 m/s 738 mmHg 86%
    02:00 +4°C° 0.1 mm 1 m/s 737 mmHg 86%
    03:00 +4°C° 0.1 mm 1 m/s 737 mmHg 87%
    04:00 +3°C° 0.3 mm 2 m/s 736 mmHg 87%
    05:00 +3°C° 0.3 mm 2 m/s 736 mmHg 88%
    06:00 +2°C° 0.3 mm 3 m/s 735 mmHg 88%
    07:00 +2°C° 0.6 mm 3 m/s 735 mmHg 89%
    08:00 +3°C° 0.6 mm 4 m/s 735 mmHg 89%
    09:00 +3°C° 0.6 mm 4 m/s 735 mmHg 90%
    10:00 +2°C° 1.1 mm 5 m/s 734 mmHg 91%
    11:00 +2°C° 1.1 mm 5 m/s 734 mmHg 91%
    12:00 +2°C° 1.1 mm 5 m/s 734 mmHg 92%
    13:00 +2°C° 2.6 mm 5 m/s 734 mmHg 93%
    14:00 +2°C° 2.6 mm 5 m/s 734 mmHg 94%
    15:00 +3°C° 2.6 mm 4 m/s 733 mmHg 96%
    16:00 +3°C° 2.2 mm 3 m/s 734 mmHg 96%
    17:00 +3°C° 2.2 mm 3 m/s 734 mmHg 96%
    18:00 +4°C° 2.2 mm 2 m/s 734 mmHg 96%
    19:00 +3°C° 0.3 mm 2 m/s 734 mmHg 95%
    20:00 +3°C° 0.3 mm 2 m/s 735 mmHg 94%
    21:00 +2°C° 0.3 mm 2 m/s 735 mmHg 93%
    22:00 +1°C° 0 mm 2 m/s 735 mmHg 92%
    23:00 +1°C° 0 mm 2 m/s 735 mmHg 91%

    24 Martie, Duminică

    Timp Temperatura Precipitaţii Vânt Presiune Umiditate
    00:00 -1°C° 0 mm 2 m/s 735 mmHg 91%
    01:00 -1°C° 0 mm 2 m/s 736 mmHg 89%
    02:00 -2°C° 0 mm 2 m/s 736 mmHg 88%
    03:00 -3°C° 0 mm 2 m/s 736 mmHg 86%
    04:00 -3°C° 0 mm 2 m/s 736 mmHg 85%
    05:00 -4°C° 0 mm 3 m/s 736 mmHg 84%
    06:00 -5°C° 0 mm 3 m/s 736 mmHg 82%
    07:00 -2°C° 0 mm 2 m/s 736 mmHg 78%
    08:00 +1°C° 0 mm 2 m/s 736 mmHg 73%
    09:00 +4°C° 0 mm 1 m/s 736 mmHg 68%
    10:00 +5°C° 0 mm 1 m/s 736 mmHg 69%
    11:00 +6°C° 0 mm 1 m/s 736 mmHg 69%
    12:00 +6°C° 0 mm 1 m/s 736 mmHg 69%
    13:00 +5°C° 0 mm 2 m/s 736 mmHg 70%
    14:00 +5°C° 0 mm 2 m/s 736 mmHg 70%
    15:00 +4°C° 0 mm 3 m/s 736 mmHg 70%
    16:00 +3°C° 0 mm 3 m/s 736 mmHg 74%
    17:00 +2°C° 0 mm 3 m/s 736 mmHg 78%
    18:00 +1°C° 0 mm 3 m/s 736 mmHg 82%
    19:00 0°C° 0 mm 3 m/s 737 mmHg 82%
    20:00 -1°C° 0 mm 2 m/s 737 mmHg 83%
    21:00 -2°C° 0 mm 2 m/s 737 mmHg 84%
    22:00 -2°C° 0 mm 2 m/s 737 mmHg 83%
    23:00 -2°C° 0 mm 2 m/s 737 mmHg 83%

    25 Martie, Luni

    Timp Temperatura Precipitaţii Vânt Presiune Umiditate
    00:00 -3°C° 0 mm 2 m/s 737 mmHg 83%
    01:00 -3°C° 0 mm 2 m/s 737 mmHg 82%
    02:00 -3°C° 0 mm 2 m/s 737 mmHg 82%
    03:00 -3°C° 0 mm 2 m/s 737 mmHg 81%
    04:00 -3°C° 0 mm 2 m/s 737 mmHg 81%
    05:00 -3°C° 0 mm 2 m/s 737 mmHg 80%
    06:00 -4°C° 0 mm 3 m/s 737 mmHg 80%
    07:00 -1°C° 0 mm 2 m/s 737 mmHg 77%
    08:00 +2°C° 0 mm 2 m/s 737 mmHg 75%
    09:00 +5°C° 0 mm 1 m/s 737 mmHg 72%
    10:00 +6°C° 0 mm 1 m/s 737 mmHg 75%
    11:00 +6°C° 0 mm 1 m/s 737 mmHg 78%
    12:00 +6°C° 0 mm 2 m/s 737 mmHg 81%
    13:00 +6°C° 0 mm 2 m/s 737 mmHg 83%
    14:00 +6°C° 0 mm 2 m/s 737 mmHg 84%
    15:00 +5°C° 0 mm 2 m/s 736 mmHg 86%
    16:00 +6°C° 0 mm 1 m/s 736 mmHg 88%
    17:00 +6°C° 0 mm 1 m/s 736 mmHg 89%
    18:00 +5°C° 0 mm 1 m/s 736 mmHg 91%
    19:00 +5°C° 0 mm 1 m/s 736 mmHg 92%
    20:00 +3°C° 0 mm 0 m/s 736 mmHg 92%
    21:00 +2°C° 0 mm 0 m/s 736 mmHg 93%
    22:00 +3°C° 0 mm 1 m/s 736 mmHg 92%
    23:00 +3°C° 0 mm 1 m/s 736 mmHg 91%

    26 Martie, Marţi

    Timp Temperatura Precipitaţii Vânt Presiune Umiditate
    00:00 +1°C° 0 mm 2 m/s 736 mmHg 90%
    01:00 +1°C° 0 mm 2 m/s 735 mmHg 88%
    02:00 +1°C° 0 mm 2 m/s 735 mmHg 87%
    03:00 +1°C° 0 mm 2 m/s 734 mmHg 85%
    04:00 +2°C° 0 mm 1 m/s 734 mmHg 83%
    05:00 +2°C° 0 mm 1 m/s 734 mmHg 82%
    06:00 +2°C° 0 mm 1 m/s 734 mmHg 81%
    07:00 +4°C° 0 mm 1 m/s 733 mmHg 79%
    08:00 +7°C° 0 mm 1 m/s 733 mmHg 78%
    09:00 +9°C° 0 mm 1 m/s 733 mmHg 77%
    10:00 +10°C° 0 mm 1 m/s 733 mmHg 78%
    11:00 +10°C° 0 mm 1 m/s 732 mmHg 79%
    12:00 +11°C° 0 mm 1 m/s 732 mmHg 79%
    13:00 +12°C° 0 mm 1 m/s 732 mmHg 79%
    14:00 +12°C° 0 mm 1 m/s 731 mmHg 79%
    15:00 +12°C° 0 mm 1 m/s 731 mmHg 79%
    16:00 +11°C° 0 mm 1 m/s 731 mmHg 82%
    17:00 +10°C° 0 mm 1 m/s 731 mmHg 84%
    18:00 +8°C° 0 mm 0 m/s 731 mmHg 87%
    19:00 +9°C° 0 mm 1 m/s 731 mmHg 85%
    20:00 +7°C° 0 mm 2 m/s 731 mmHg 83%
    21:00 +6°C° 0 mm 2 m/s 731 mmHg 82%
    22:00 +5°C° 0 mm 3 m/s 731 mmHg 78%
    23:00 +4°C° 0 mm 3 m/s 731 mmHg 74%
    Arată mai mult